SCP
0 0 0 0 0 0 0 0 0 0 0 0 0 0 0 0 0 0 0 0 0 0 0 0 0 0 0 0 0 0 0 0 0 0 0 0 0 0 0 0 0 0 0 0 0 0 0 0 0 0 0 0 0 0
0 0 0 0 0 0 0 0 0 0 0 0 0 0 0 0 0 0 0 0 0 0 0 0 -0 0 0 0 0 0 0 0 0 0 0 0 0 0 0 0 0 0 0 0 0 0 0 0 0 0 0 0 0 0
0 0 0 0 0 0 0 0 0 0 0 0 0 0 0 0 0 0 0 0 0 0 0 0 0 0 0 0 0 0 0 0 0 0 0 0 0 0 0 0 0 0 0 0 0 0 0 0 0 0 0 0 0 0
0 0 0 0 0 0 0 0 0 0 0 0 0 0 0 0 0 0 0 0 0 0 0 0 0 0 -0 -0 0 0 0 0 0 0 0 0 0 0 0 0 0 0 0 0 0 0 0 0 0 0 0 0 0 0
0 0 0 0 0 0 0 -0 0 0 0 0 0 0 0 0 0 0 0 0 0 0 0 0 0 0 0 0 0 0 0 0 0 0 0 0 0 0 0 0 0 0 0 0 0 0 0 0 0 0 0 0 -0 -0
0 0 0 0 0 0 0 0 -0 0 0 0 0 0 0 0 0 0 0 0 0 0 0 0 0 0 0 0 0 0 0 0 0 0 0 0 0 0 0 0 0 0 0 0 0 0 0 0 0 0 0 -0 -0 -0
0 0 0 0 0 -0 -0 -0 -0 -0 0 0 0 0 0 0 0 0 0 0 0 0 0 0 0 0 0 0 0 0 0 0 0 0 0 0 0 0 0 0 0 0 -0 0 0 0 0 0 0 0 -0 -0 -0 -0
0 0 0 -0 -0 -0 -0 -0 -0 0 0 0 0 -0 -0 0 0 0 0 -0 0 0 0 0 0 0 0 0 0 0 0 0 0 0 0 0 0 0 0 0 0 0 0 0 0 0 0 0 0 0 0 0 -0 -0
0 -0 -0 -0 -0 -0 -0 -0 -0 0 0 0 0 0 0 0 0 0 0 0 0 0 0 0 0 0 0 0 0 0 0 0 0 0 0 0 0 0 0 0 0 0 0 0 0 0 0 0 0 0 0 0 -0 -0
-0 -0 0 -0 -0 -0 -0 -0 -0 0 0 -0 0 0 0 0 0 0 0 0 0 0 0 0 0 0 0 0 0 0 0 0 0 0 0 0 0 0 0 0 0 0 0 0 0 0 0 0 0 -0 -0 -0 -0 -0
-0 0 -0 -0 -0 -0 -0 -0 -0 -0 0 0 0 0 0 0 0 0 0 0 0 0 0 0 0 0 0 0 0 0 0 -0 0 0 0 0 0 0 0 0 0 0 0 0 0 0 0 0 -0 -0 -0 -0 -0 -0
-0 -0 -0 -0 -0 -0 -0 -0 -0 0 -0 0 -0 0 0 0 0 -0 0 0 0 0 0 0 0 0 0 0 0 0 0 -0 0 -0 -0 0 0 -0 0 0 0 0 0 0 0 0 0 0 -0 -0 -0 -0 -0 -0
-0 -0 -0 -0 -0 -0 -0 -0 -0 -0 0 0 0 0 -0 -0 -0 0 -0 0 0 0 0 0 0 0 0 0 0 0 0 0 -0 -0 0 -0 -0 0 0 0 0 0 0 -0 0 0 0 -0 -0 -0 -0 -0 -0 -0
-0 -0 -0 -0 -0 -0 -0 -0 -0 0 0 0 0 0 0 0 0 0 0 -0 0 0 0 0 0 0 0 0 0 0 0 0 0 0 -0 0 0 -0 0 0 0 0 0 0 0 0 -0 -0 -0 0 -0 -0 -0 -0
-0 -0 -0 -0 -0 -0 -0 0 -0 0 0 0 0 0 0 0 0 0 0 0 0 -0 -0 0 0 0 0 0 0 0 0 0 0 0 0 0 0 0 -0 -0 -0 -0 -0 -0 -0 0 -0 -0 0 0 -0 0 -0 -0
-0 -0 0 -0 -0 0 0 0 0 0 0 0 0 0 0 -0 -0 -0 0 0 0 0 -0 0 0 0 0 0 0 0 0 0 0 0 0 0 -0 -0 -0 -0 -0 -0 -0 0 0 0 0 0 0 -0 -0 -0 -0 -0
-0 0 0 0 0 -0 -0 0 0 0 0 0 0 0 0 0 0 0 0 0 0 -0 -0 0 0 0 0 0 0 0 -0 0 0 0 -0 -0 -0 -0 -0 -0 -0 -0 0 0 0 0 0 0 -0 0 -0 -0 -0 -0
0 -0 -0 0 0 0 0 0 0 0 0 0 0 0 0 0 0 0 -0 -0 -0 0 0 0 0 0 0 0 0 0 0 0 0 -0 -0 -0 -0 -0 -0 -0 -0 -0 -0 0 -0 -0 -0 -0 -0 -0 -0 -0 -0 -0
0 -0 -0 -0 0 0 0 0 0 0 0 0 0 0 0 0 0 0 -0 0 0 -0 0 0 0 0 0 0 -0 -0 -0 -0 -0 -0 -0 -0 -0 -0 -0 -0 -0 -0 -0 -0 -0 -0 -0 -0 0 -0 -0 -0 0 0
-0 -0 -0 -0 0 0 0 0 0 0 0 0 0 0 -0 -0 -0 -0 0 0 -0 0 0 0 0 0 0 -0 -0 0 -0 -0 -0 -0 -0 -0 -0 -0 -0 -0 -0 -0 -0 -0 -0 -0 -0 -0 -0 0 0 0 0 -0
-0 -0 -0 0 0 0 0 0 0 0 0 0 0 0 0 0 0 0 0 -0 -0 0 0 0 0 0 -0 -0 -0 -0 -0 -0 -0 -0 0 0 0 0 0 -0 -0 -0 -0 0 -0 0 -0 0 0 0 0 0 0 0
-0 -0 0 0 0 0 0 0 0 0 0 0 0 0 0 0 0 0 -0 0 0 0 0 0 0 0 0 0 0 -0 0 0 0 0 0 0 0 0 0 -0 -0 -0 -0 -0 0 0 0 0 0 0 0 0 0 0
-0 0 0 0 0 0 0 0 0 0 0 0 0 0 -0 -0 -0 -0 0 0 0 0 0 0 0 -0 -0 0 -0 -0 0 -0 0 -0 -0 -0 -0 -0 -0 -0 -0 -0 -0 0 0 0 0 0 0 0 0 0 0 0
0 0 0 0 0 0 0 0 0 0 0 0 -0 -0 -0 -0 -0 -0 0 0 0 0 0 0 0 0 0 -0 0 0 0 0 -0 -0 -0 -0 -0 -0 -0 -0 -0 0 0 0 0 0 0 0 0 0 0 0 0 0
0 0 0 0 0 0 0 0 0 0 0 -0 -0 -0 -0 -0 0 0 0 0 0 0 0 0 0 0 0 0 0 0 0 -0 -0 -0 -0 -0 -0 -0 -0 -0 0 0 0 0 0 0 0 0 0 0 0 0 0 0
0 0 0 0 0 0 0 0 0 0 0 0 0 -0 -0 0 0 0 0 0 0 -0 0 0 -0 0 0 0 0 -0 0 0 -0 -0 -0 -0 -0 -0 0 0 0 0 0 0 0 0 0 0 0 0 0 0 0 0
0 0 0 0 0 0 0 0 0 0 0 -0 -0 0 0 0 0 0 0 0 0 0 0 0 -0 -0 -0 0 0 0 0 0 -0 -0 -0 -0 -0 0 0 0 0 0 0 0 0 0 0 0 0 0 0 0 0 0
0 0 0 0 0 0 0 0 0 0 0 -0 -0 0 0 0 0 0 0 0 0 0 0 0 -0 -0 -0 -0 -0 -0 -0 -0 -0 -0 -0 -0 0 0 0 0 0 0 0 0 0 0 0 0 0 0 0 0 0 0
0 0 0 0 0 0 0 0 0 0 0 0 0 0 0 0 0 0 0 0 0 0 0 -0 -0 -0 -0 0 0 -0 -0 -0 -0 -0 -0 0 0 0 0 0 0 0 0 0 0 0 0 0 0 0 0 0 0 0
0 0 0 0 0 0 -0 0 0 0 0 0 0 0 0 0 0 0 0 0 0 0 0 -0 0 -0 -0 -0 -0 -0 0 0 0 0 0 0 0 0 0 0 0 0 0 0 0 0 0 0 0 0 0 0 0 0
0 0 0 0 0 -0 0 0 0 0 0 0 0 0 0 0 0 0 0 0 0 0 0 0 0 -0 -0 -0 -0 -0 0 0 0 -0 0 0 0 0 0 0 0 0 0 0 0 0 0 0 0 0 0 0 0 0
0 0 0 0 -0 -0 0 0 0 0 0 0 0 0 0 0 0 0 0 0 0 0 0 0 -0 0 -0 0 0 0 0 0 0 0 0 0 0 0 0 0 0 0 0 0 0 0 0 0 0 0 0 0 0 0
0 0 0 0 -0 -0 0 0 0 0 0 0 0 0 0 0 0 0 0 0 0 0 0 0 0 -0 -0 0 0 0 0 0 0 0 0 0 0 0 0 0 0 0 0 0 0 0 0 0 0 0 0 0 0 0
Wind_Speed_500mb
47 45 40 43 45 46 43 40 36 34 29 26 27 24 19 17 13 16 13 12 12 9 23 23 8 9 5 2 5 4 3 7 6 4 5 3 2 5 5 7 10 9 11 6 6 6 12 12 5 3 5 19 17 22
43 42 39 37 42 42 39 38 34 33 31 27 27 24 17 16 13 15 19 16 14 14 13 24 33 26 21 12 10 5 6 5 3 6 4 3 3 6 1 2 3 7 5 5 6 3 8 22 14 9 14 14 17 26
47 45 41 36 40 42 42 40 36 32 26 23 23 18 16 15 17 15 17 20 10 11 21 10 2 3 7 28 24 8 6 4 8 8 7 1 3 2 3 4 3 4 11 4 3 3 2 14 4 15 10 16 18 25
44 44 46 40 36 38 35 36 33 29 24 22 22 18 12 13 20 9 11 14 12 5 2 4 9 10 8 18 13 21 18 13 12 7 6 2 3 8 4 7 4 11 12 7 4 4 9 2 7 7 15 17 27 27
39 41 41 40 36 35 41 35 36 29 23 23 26 20 14 17 17 16 18 24 18 7 4 16 25 13 21 16 21 20 17 7 5 5 3 5 7 3 5 3 6 3 8 6 4 12 14 1 15 17 22 27 33 38
38 36 43 36 32 34 40 42 34 33 21 18 20 16 14 18 21 16 9 24 23 22 4 5 11 4 26 25 25 21 12 9 6 8 5 7 9 5 4 5 5 4 10 18 11 7 11 28 26 22 28 31 35 43
35 35 42 35 33 33 41 39 29 31 15 19 14 13 15 16 14 10 4 5 8 29 4 6 5 11 36 34 20 17 13 6 8 7 6 6 6 6 5 5 17 21 15 8 5 12 22 19 21 24 28 31 44 45
33 34 40 38 33 33 36 37 30 23 15 12 14 12 12 6 15 16 7 9 20 12 7 1 6 7 25 9 8 11 8 7 6 6 5 8 7 10 7 15 9 25 15 24 30 28 35 27 22 29 28 37 53 56
34 35 37 38 30 26 30 33 29 18 10 12 13 8 1 6 6 9 8 19 21 3 3 3 5 6 18 6 9 8 10 4 7 4 7 7 4 7 13 21 11 13 4 27 29 28 21 22 25 28 30 39 49 55
31 35 33 34 30 21 22 31 19 17 10 10 8 1 2 2 13 18 14 14 7 5 5 4 7 5 14 8 6 8 8 4 5 9 8 5 6 8 30 22 15 9 20 14 24 28 23 23 25 29 31 29 36 55
33 33 33 32 28 18 18 24 19 10 7 2 4 3 11 34 10 5 5 4 6 3 9 12 13 5 5 6 4 9 3 2 4 5 6 5 5 11 34 23 16 28 22 17 22 25 20 23 21 22 29 35 34 49
31 31 30 29 21 14 12 22 9 6 11 2 6 12 18 5 2 2 4 5 7 6 14 10 7 11 8 6 6 7 3 5 7 15 5 4 5 38 29 30 30 24 20 31 24 25 23 21 22 22 22 35 33 47
29 28 29 23 18 12 9 12 5 4 4 1 1 3 3 4 5 6 8 5 4 10 12 10 5 7 6 5 6 2 6 8 8 6 5 3 21 19 34 38 31 24 24 18 22 21 18 18 19 23 21 36 33 30
27 23 26 16 16 13 11 9 4 9 3 3 2 2 5 6 8 7 4 3 2 17 29 24 10 5 4 4 3 7 8 5 6 4 4 8 22 33 49 36 33 29 19 24 22 19 17 18 18 19 20 35 31 32
23 23 24 10 7 3 2 11 10 1 1 3 3 5 10 15 6 14 10 9 9 23 25 14 8 7 4 5 6 6 7 5 2 4 7 13 48 49 42 36 33 29 30 27 23 20 19 17 20 19 19 35 31 32
14 12 10 7 4 7 8 5 7 5 4 4 6 7 11 5 6 11 15 12 19 22 15 6 5 6 7 5 8 7 4 3 4 6 37 55 48 43 39 35 32 26 22 22 23 21 20 21 24 20 14 36 35 32
8 6 3 7 4 5 10 6 9 5 5 5 8 18 31 19 13 6 10 13 21 21 3 5 5 9 5 5 4 4 3 5 32 51 52 46 41 39 36 35 33 27 26 25 19 20 20 23 22 30 16 38 34 33
13 6 4 0 10 10 13 5 3 4 7 11 9 17 23 11 9 12 8 14 10 7 5 5 4 4 4 3 2 3 26 50 53 50 48 43 40 35 29 24 25 24 26 25 22 18 22 24 26 28 24 33 31 27
11 4 5 14 12 8 6 4 4 6 12 13 17 23 18 14 14 13 13 9 8 10 4 5 5 1 1 4 20 38 47 56 54 48 45 40 37 33 28 27 30 25 25 22 19 21 22 21 28 25 26 28 32 28
16 8 13 16 11 0 2 4 5 8 9 8 19 4 5 6 21 16 7 3 4 2 5 2 5 6 8 16 47 52 53 54 57 54 41 34 30 31 26 17 18 30 28 24 24 20 21 22 22 27 24 29 36 32
15 11 15 15 11 4 6 4 8 10 10 7 13 10 4 12 15 6 1 8 2 2 5 2 11 8 19 28 44 46 49 41 41 45 44 38 31 29 27 33 35 31 29 23 23 24 22 22 17 25 24 26 28 29
17 15 16 14 6 4 7 10 9 12 8 9 11 9 6 4 4 2 2 4 4 3 8 18 7 15 47 54 52 41 38 38 36 35 33 32 33 34 27 30 29 31 28 26 23 23 22 19 17 24 27 19 23 25
17 13 5 7 6 6 9 9 7 6 3 4 7 4 4 3 1 2 4 4 2 6 20 16 11 41 43 40 45 46 40 42 41 33 30 42 50 45 41 35 29 28 28 26 21 20 21 16 18 22 24 20 21 26
9 9 6 6 11 7 5 6 8 5 4 4 2 3 3 5 2 2 2 5 11 16 23 14 35 43 43 48 53 48 43 44 48 52 45 40 40 38 32 31 25 19 14 10 8 8 12 15 17 18 20 21 24 27
5 9 6 8 10 6 6 5 4 1 5 7 8 3 5 7 3 3 2 3 16 17 20 16 28 37 39 39 46 45 44 46 48 50 47 35 39 37 30 22 16 12 6 4 5 7 11 10 13 18 22 26 28 30
7 10 10 9 7 8 5 5 7 10 6 4 3 6 8 4 2 1 2 11 22 37 22 12 32 27 38 45 44 51 51 43 39 37 41 39 33 31 31 23 17 16 18 17 8 7 9 9 9 15 20 23 23 29
5 8 13 13 9 8 5 7 4 2 2 5 5 7 4 3 2 2 2 23 35 19 1 8 31 42 43 38 55 50 46 37 31 34 31 42 34 21 12 13 16 18 16 20 18 13 12 9 10 16 20 20 25 31
11 8 7 6 10 6 0 2 5 4 4 9 3 3 5 3 2 1 5 29 29 17 15 35 36 37 34 47 50 48 41 35 33 36 41 37 27 20 18 19 17 13 12 17 19 16 14 13 15 19 21 22 25 29
9 6 4 5 8 9 5 3 2 3 4 5 2 3 4 5 5 12 22 36 29 10 10 37 39 41 47 44 37 30 28 25 26 29 33 37 31 26 20 16 14 9 6 10 11 12 15 17 20 22 20 19 20 23
9 9 7 5 3 4 5 3 1 2 1 1 8 8 8 12 12 21 32 25 9 25 45 51 58 53 54 49 42 34 23 16 13 12 30 39 33 28 17 9 8 4 2 7 11 12 13 16 15 13 15 16 19 22
6 9 7 6 5 3 4 5 3 3 4 6 12 6 11 11 19 19 20 22 30 49 50 51 49 44 42 43 41 39 31 22 24 27 26 28 25 18 11 7 5 4 3 4 5 5 9 10 12 14 16 18 21 23
4 6 10 5 4 5 10 6 3 2 3 4 4 6 9 7 11 18 27 29 29 29 32 32 45 51 44 39 31 21 9 21 28 25 19 14 10 5 4 3 3 1 4 8 10 11 10 11 12 14 16 19 21 23
7 8 9 9 9 8 12 11 7 5 4 5 6 10 6 9 8 17 23 26 28 28 34 32 45 49 42 33 25 22 20 21 19 15 11 8 5 5 5 5 5 5 7 8 10 12 12 12 13 14 15 17 19 21
Wind_Direction_500mb
330 326 326 323 325 325 323 315 316 312 311 311 304 304 298 273 273 288 234 243 249 248 278 287 262 212 214 202 140 309 28 358 27 77 124 248 323 282 83 175 181 178 173 195 187 215 254 350 19 96 298 324 348 356
326 327 325 324 323 326 325 317 310 305 308 305 304 303 297 270 261 272 253 248 264 255 265 278 277 251 236 221 205 149 124 14 48 90 53 342 300 334 322 303 124 199 188 174 217 242 99 69 70 11 317 325 11 360
316 317 318 313 316 319 323 321 316 310 312 311 308 302 304 294 253 255 261 256 270 284 300 300 315 169 212 223 208 176 150 129 79 76 137 148 269 28 279 242 20 349 133 197 210 79 186 140 38 326 10 26 16 357
314 319 318 310 308 316 317 317 311 306 305 313 314 303 306 323 267 337 261 276 253 274 333 258 90 127 154 112 165 202 139 128 123 103 82 113 227 194 254 238 225 220 170 187 219 135 167 245 292 72 49 31 7 5
310 319 321 320 305 318 318 313 318 302 288 297 303 283 293 302 302 256 282 259 206 218 278 293 311 216 178 179 164 179 201 173 119 92 93 224 239 277 298 313 254 235 178 141 178 170 199 7 86 79 52 36 16 5
311 319 321 321 313 309 314 315 315 315 298 301 297 283 282 286 274 238 229 236 234 239 247 305 340 223 187 180 174 164 175 161 144 137 186 264 259 238 274 263 164 133 152 150 187 187 100 106 86 51 38 33 18 11
316 323 323 324 319 310 311 319 318 317 309 297 291 294 299 298 247 233 221 216 206 203 193 297 344 125 159 155 147 162 181 179 166 173 223 247 272 138 255 245 182 176 154 183 205 140 81 90 81 44 35 31 20 20
319 321 322 323 319 310 317 326 326 320 302 297 306 327 305 292 223 174 207 245 156 154 186 249 275 123 173 133 119 178 152 175 193 202 222 231 231 202 238 246 159 181 160 108 101 105 118 100 57 39 41 31 26 18
318 318 322 321 316 314 319 333 342 330 308 327 314 310 60 143 170 148 43 151 162 119 204 224 185 187 178 122 127 140 163 180 199 209 240 205 180 224 222 163 170 93 109 117 103 109 93 65 64 54 49 36 28 15
316 316 322 320 320 308 326 333 338 328 325 324 328 334 26 97 140 131 141 177 210 228 226 253 287 212 157 145 131 139 180 213 204 214 208 222 253 221 137 153 187 156 121 120 114 110 100 90 80 55 47 37 27 24
316 319 320 321 320 316 329 332 343 339 346 266 170 51 125 154 129 118 125 175 163 236 219 228 221 159 53 120 152 206 166 217 243 191 205 204 249 169 155 150 177 124 107 112 122 118 102 105 84 59 43 32 32 29
319 320 322 319 325 322 326 333 325 328 335 60 31 139 165 190 257 204 178 196 192 233 178 183 172 163 109 129 131 177 236 184 252 153 213 222 357 121 152 136 120 113 111 126 111 99 103 80 61 53 41 26 37 33
322 321 323 324 325 312 287 330 344 348 343 296 65 108 143 186 209 223 198 202 199 181 160 148 89 99 116 105 96 200 232 234 169 196 186 110 191 189 129 123 114 113 117 109 102 95 96 74 57 44 42 25 38 25
317 318 319 302 300 294 282 288 236 173 357 308 211 206 222 187 245 207 252 136 112 144 134 121 98 103 111 101 161 234 231 273 231 178 113 175 177 123 128 122 121 115 121 118 109 103 107 80 63 49 47 32 34 27
315 325 318 315 276 191 70 138 154 116 350 282 254 248 225 246 275 271 231 157 149 162 140 114 108 147 153 215 198 240 230 249 85 122 160 152 128 122 120 121 121 122 118 112 109 101 91 77 62 51 55 38 35 33
319 348 50 7 142 157 187 161 187 252 285 264 246 282 284 341 50 328 240 159 156 158 146 142 138 202 213 212 217 212 233 76 168 157 128 126 119 119 121 121 121 121 122 119 100 99 85 68 60 59 82 37 35 35
265 300 328 356 190 185 169 154 185 235 269 256 257 264 267 269 288 264 175 140 159 158 197 198 225 221 176 213 234 174 203 161 123 129 136 137 130 130 130 129 123 123 125 106 110 91 91 70 63 56 85 39 36 36
222 211 351 89 167 174 168 136 185 276 266 259 265 323 337 257 217 245 163 170 161 207 210 225 284 251 271 255 127 76 106 126 131 131 130 126 129 132 137 142 150 116 121 107 91 96 81 73 58 51 64 45 39 40
171 173 158 171 187 148 175 216 204 264 260 265 260 250 275 286 234 192 156 172 236 214 249 242 245 189 153 251 124 122 127 131 131 133 130 132 132 132 127 119 117 128 117 118 83 82 73 85 58 44 53 48 43 43
157 153 160 181 185 198 204 228 223 267 274 309 326 257 197 149 141 144 129 43 56 197 266 288 23 115 179 122 146 145 144 140 134 125 129 135 140 139 137 138 153 121 116 107 84 74 69 76 53 39 47 53 45 44
140 159 154 178 208 274 253 234 234 246 296 289 341 359 50 132 129 166 73 335 347 295 39 355 230 273 238 162 157 153 150 155 151 144 143 146 149 144 134 123 118 116 124 106 85 69 58 60 58 36 36 53 49 46
160 161 165 189 222 262 267 233 259 300 282 291 333 352 74 71 88 18 270 334 309 358 102 177 4 93 146 154 158 151 144 140 130 133 137 144 149 155 132 128 126 111 102 96 90 84 75 66 40 34 34 45 38 38
169 171 190 201 232 247 259 214 238 235 250 356 354 331 92 87 40 306 292 273 270 108 144 174 75 125 123 142 161 160 154 150 145 147 154 133 123 126 131 124 123 120 110 98 97 87 78 67 49 43 38 45 35 33
170 190 219 223 214 263 240 231 223 240 193 156 191 208 129 164 184 265 297 293 137 137 157 123 132 133 131 133 132 135 141 144 139 139 143 141 129 123 128 122 118 109 108 117 100 78 59 62 53 54 44 41 27 26
203 220 217 251 222 235 247 189 208 182 241 197 184 181 205 173 189 222 234 201 150 154 173 149 147 140 138 138 140 143 148 150 144 143 147 154 151 148 144 143 135 113 73 55 86 73 70 63 53 41 32 22 14 16
216 216 188 215 218 202 263 191 214 205 205 145 195 171 169 186 239 161 298 141 147 156 141 132 162 156 149 149 144 141 140 148 151 145 158 168 175 174 155 143 123 82 50 44 45 56 60 58 43 22 17 11 9 10
240 255 221 231 262 308 325 308 328 359 164 197 194 168 160 184 161 203 63 151 148 152 19 156 166 163 155 149 150 148 150 157 152 128 131 172 168 149 132 110 101 81 50 37 44 58 65 64 46 29 14 3 7 10
247 274 207 249 219 240 204 111 6 26 21 358 358 91 167 149 157 186 133 167 156 137 94 150 157 158 154 154 155 155 148 143 127 120 119 117 106 97 87 81 77 71 48 33 44 54 48 41 32 20 13 2 357 4
249 245 212 274 106 75 53 0 28 16 1 1 27 117 152 176 128 127 142 149 138 89 165 152 156 157 146 143 145 151 154 157 160 140 130 126 126 124 128 122 114 115 78 63 48 23 18 12 9 5 5 3 360 3
241 223 173 131 89 119 151 189 210 260 351 145 156 137 149 153 139 134 143 164 204 165 165 161 148 144 142 144 146 154 163 164 177 173 152 152 150 152 163 166 154 154 358 351 347 341 344 345 356 14 22 26 23 22
206 163 96 84 94 126 168 209 194 194 150 63 177 159 163 166 174 147 154 156 137 149 151 153 154 159 161 164 166 158 142 151 174 178 176 167 168 187 217 219 197 200 260 310 346 349 355 7 21 29 32 32 31 28
107 87 126 114 131 170 165 196 187 128 123 71 84 131 135 151 183 167 163 170 172 167 168 175 179 171 176 178 179 184 189 174 170 172 180 190 195 216 230 180 138 93 46 35 42 41 41 39 43 43 41 38 35 32
109 98 104 114 137 185 195 184 174 149 143 153 186 174 161 158 181 177 166 184 190 188 192 194 186 181 178 185 189 179 166 167 170 175 188 203 182 160 199 218 238 282 323 2 28 42 44 42 44 46 43 38 33 31
Wind_Speed_850mb
47 45 40 43 45 46 43 40 36 34 29 26 27 24 19 17 13 16 13 12 12 9 23 23 8 9 5 2 5 4 3 7 6 4 5 3 2 5 5 7 10 9 11 6 6 6 12 12 5 3 5 19 17 22
43 42 39 37 42 42 39 38 34 33 31 27 27 24 17 16 13 15 19 16 14 14 13 24 33 26 21 12 10 5 6 5 3 6 4 3 3 6 1 2 3 7 5 5 6 3 8 22 14 9 14 14 17 26
47 45 41 36 40 42 42 40 36 32 26 23 23 18 16 15 17 15 17 20 10 11 21 10 2 3 7 28 24 8 6 4 8 8 7 1 3 2 3 4 3 4 11 4 3 3 2 14 4 15 10 16 18 25
44 44 46 40 36 38 35 36 33 29 24 22 22 18 12 13 20 9 11 14 12 5 2 4 9 10 8 18 13 21 18 13 12 7 6 2 3 8 4 7 4 11 12 7 4 4 9 2 7 7 15 17 27 27
39 41 41 40 36 35 41 35 36 29 23 23 26 20 14 17 17 16 18 24 18 7 4 16 25 13 21 16 21 20 17 7 5 5 3 5 7 3 5 3 6 3 8 6 4 12 14 1 15 17 22 27 33 38
38 36 43 36 32 34 40 42 34 33 21 18 20 16 14 18 21 16 9 24 23 22 4 5 11 4 26 25 25 21 12 9 6 8 5 7 9 5 4 5 5 4 10 18 11 7 11 28 26 22 28 31 35 43
35 35 42 35 33 33 41 39 29 31 15 19 14 13 15 16 14 10 4 5 8 29 4 6 5 11 36 34 20 17 13 6 8 7 6 6 6 6 5 5 17 21 15 8 5 12 22 19 21 24 28 31 44 45
33 34 40 38 33 33 36 37 30 23 15 12 14 12 12 6 15 16 7 9 20 12 7 1 6 7 25 9 8 11 8 7 6 6 5 8 7 10 7 15 9 25 15 24 30 28 35 27 22 29 28 37 53 56
34 35 37 38 30 26 30 33 29 18 10 12 13 8 1 6 6 9 8 19 21 3 3 3 5 6 18 6 9 8 10 4 7 4 7 7 4 7 13 21 11 13 4 27 29 28 21 22 25 28 30 39 49 55
31 35 33 34 30 21 22 31 19 17 10 10 8 1 2 2 13 18 14 14 7 5 5 4 7 5 14 8 6 8 8 4 5 9 8 5 6 8 30 22 15 9 20 14 24 28 23 23 25 29 31 29 36 55
33 33 33 32 28 18 18 24 19 10 7 2 4 3 11 34 10 5 5 4 6 3 9 12 13 5 5 6 4 9 3 2 4 5 6 5 5 11 34 23 16 28 22 17 22 25 20 23 21 22 29 35 34 49
31 31 30 29 21 14 12 22 9 6 11 2 6 12 18 5 2 2 4 5 7 6 14 10 7 11 8 6 6 7 3 5 7 15 5 4 5 38 29 30 30 24 20 31 24 25 23 21 22 22 22 35 33 47
29 28 29 23 18 12 9 12 5 4 4 1 1 3 3 4 5 6 8 5 4 10 12 10 5 7 6 5 6 2 6 8 8 6 5 3 21 19 34 38 31 24 24 18 22 21 18 18 19 23 21 36 33 30
27 23 26 16 16 13 11 9 4 9 3 3 2 2 5 6 8 7 4 3 2 17 29 24 10 5 4 4 3 7 8 5 6 4 4 8 22 33 49 36 33 29 19 24 22 19 17 18 18 19 20 35 31 32
23 23 24 10 7 3 2 11 10 1 1 3 3 5 10 15 6 14 10 9 9 23 25 14 8 7 4 5 6 6 7 5 2 4 7 13 48 49 42 36 33 29 30 27 23 20 19 17 20 19 19 35 31 32
14 12 10 7 4 7 8 5 7 5 4 4 6 7 11 5 6 11 15 12 19 22 15 6 5 6 7 5 8 7 4 3 4 6 37 55 48 43 39 35 32 26 22 22 23 21 20 21 24 20 14 36 35 32
8 6 3 7 4 5 10 6 9 5 5 5 8 18 31 19 13 6 10 13 21 21 3 5 5 9 5 5 4 4 3 5 32 51 52 46 41 39 36 35 33 27 26 25 19 20 20 23 22 30 16 38 34 33
13 6 4 0 10 10 13 5 3 4 7 11 9 17 23 11 9 12 8 14 10 7 5 5 4 4 4 3 2 3 26 50 53 50 48 43 40 35 29 24 25 24 26 25 22 18 22 24 26 28 24 33 31 27
11 4 5 14 12 8 6 4 4 6 12 13 17 23 18 14 14 13 13 9 8 10 4 5 5 1 1 4 20 38 47 56 54 48 45 40 37 33 28 27 30 25 25 22 19 21 22 21 28 25 26 28 32 28
16 8 13 16 11 0 2 4 5 8 9 8 19 4 5 6 21 16 7 3 4 2 5 2 5 6 8 16 47 52 53 54 57 54 41 34 30 31 26 17 18 30 28 24 24 20 21 22 22 27 24 29 36 32
15 11 15 15 11 4 6 4 8 10 10 7 13 10 4 12 15 6 1 8 2 2 5 2 11 8 19 28 44 46 49 41 41 45 44 38 31 29 27 33 35 31 29 23 23 24 22 22 17 25 24 26 28 29
17 15 16 14 6 4 7 10 9 12 8 9 11 9 6 4 4 2 2 4 4 3 8 18 7 15 47 54 52 41 38 38 36 35 33 32 33 34 27 30 29 31 28 26 23 23 22 19 17 24 27 19 23 25
17 13 5 7 6 6 9 9 7 6 3 4 7 4 4 3 1 2 4 4 2 6 20 16 11 41 43 40 45 46 40 42 41 33 30 42 50 45 41 35 29 28 28 26 21 20 21 16 18 22 24 20 21 26
9 9 6 6 11 7 5 6 8 5 4 4 2 3 3 5 2 2 2 5 11 16 23 14 35 43 43 48 53 48 43 44 48 52 45 40 40 38 32 31 25 19 14 10 8 8 12 15 17 18 20 21 24 27
5 9 6 8 10 6 6 5 4 1 5 7 8 3 5 7 3 3 2 3 16 17 20 16 28 37 39 39 46 45 44 46 48 50 47 35 39 37 30 22 16 12 6 4 5 7 11 10 13 18 22 26 28 30
7 10 10 9 7 8 5 5 7 10 6 4 3 6 8 4 2 1 2 11 22 37 22 12 32 27 38 45 44 51 51 43 39 37 41 39 33 31 31 23 17 16 18 17 8 7 9 9 9 15 20 23 23 29
5 8 13 13 9 8 5 7 4 2 2 5 5 7 4 3 2 2 2 23 35 19 1 8 31 42 43 38 55 50 46 37 31 34 31 42 34 21 12 13 16 18 16 20 18 13 12 9 10 16 20 20 25 31
11 8 7 6 10 6 0 2 5 4 4 9 3 3 5 3 2 1 5 29 29 17 15 35 36 37 34 47 50 48 41 35 33 36 41 37 27 20 18 19 17 13 12 17 19 16 14 13 15 19 21 22 25 29
9 6 4 5 8 9 5 3 2 3 4 5 2 3 4 5 5 12 22 36 29 10 10 37 39 41 47 44 37 30 28 25 26 29 33 37 31 26 20 16 14 9 6 10 11 12 15 17 20 22 20 19 20 23
9 9 7 5 3 4 5 3 1 2 1 1 8 8 8 12 12 21 32 25 9 25 45 51 58 53 54 49 42 34 23 16 13 12 30 39 33 28 17 9 8 4 2 7 11 12 13 16 15 13 15 16 19 22
6 9 7 6 5 3 4 5 3 3 4 6 12 6 11 11 19 19 20 22 30 49 50 51 49 44 42 43 41 39 31 22 24 27 26 28 25 18 11 7 5 4 3 4 5 5 9 10 12 14 16 18 21 23
4 6 10 5 4 5 10 6 3 2 3 4 4 6 9 7 11 18 27 29 29 29 32 32 45 51 44 39 31 21 9 21 28 25 19 14 10 5 4 3 3 1 4 8 10 11 10 11 12 14 16 19 21 23
7 8 9 9 9 8 12 11 7 5 4 5 6 10 6 9 8 17 23 26 28 28 34 32 45 49 42 33 25 22 20 21 19 15 11 8 5 5 5 5 5 5 7 8 10 12 12 12 13 14 15 17 19 21
Wind_Direction_850mb
330 326 326 323 325 325 323 315 316 312 311 311 304 304 298 273 273 288 234 243 249 248 278 287 262 212 214 202 140 309 28 358 27 77 124 248 323 282 83 175 181 178 173 195 187 215 254 350 19 96 298 324 348 356
326 327 325 324 323 326 325 317 310 305 308 305 304 303 297 270 261 272 253 248 264 255 265 278 277 251 236 221 205 149 124 14 48 90 53 342 300 334 322 303 124 199 188 174 217 242 99 69 70 11 317 325 11 360
316 317 318 313 316 319 323 321 316 310 312 311 308 302 304 294 253 255 261 256 270 284 300 300 315 169 212 223 208 176 150 129 79 76 137 148 269 28 279 242 20 349 133 197 210 79 186 140 38 326 10 26 16 357
314 319 318 310 308 316 317 317 311 306 305 313 314 303 306 323 267 337 261 276 253 274 333 258 90 127 154 112 165 202 139 128 123 103 82 113 227 194 254 238 225 220 170 187 219 135 167 245 292 72 49 31 7 5
310 319 321 320 305 318 318 313 318 302 288 297 303 283 293 302 302 256 282 259 206 218 278 293 311 216 178 179 164 179 201 173 119 92 93 224 239 277 298 313 254 235 178 141 178 170 199 7 86 79 52 36 16 5
311 319 321 321 313 309 314 315 315 315 298 301 297 283 282 286 274 238 229 236 234 239 247 305 340 223 187 180 174 164 175 161 144 137 186 264 259 238 274 263 164 133 152 150 187 187 100 106 86 51 38 33 18 11
316 323 323 324 319 310 311 319 318 317 309 297 291 294 299 298 247 233 221 216 206 203 193 297 344 125 159 155 147 162 181 179 166 173 223 247 272 138 255 245 182 176 154 183 205 140 81 90 81 44 35 31 20 20
319 321 322 323 319 310 317 326 326 320 302 297 306 327 305 292 223 174 207 245 156 154 186 249 275 123 173 133 119 178 152 175 193 202 222 231 231 202 238 246 159 181 160 108 101 105 118 100 57 39 41 31 26 18
318 318 322 321 316 314 319 333 342 330 308 327 314 310 60 143 170 148 43 151 162 119 204 224 185 187 178 122 127 140 163 180 199 209 240 205 180 224 222 163 170 93 109 117 103 109 93 65 64 54 49 36 28 15
316 316 322 320 320 308 326 333 338 328 325 324 328 334 26 97 140 131 141 177 210 228 226 253 287 212 157 145 131 139 180 213 204 214 208 222 253 221 137 153 187 156 121 120 114 110 100 90 80 55 47 37 27 24
316 319 320 321 320 316 329 332 343 339 346 266 170 51 125 154 129 118 125 175 163 236 219 228 221 159 53 120 152 206 166 217 243 191 205 204 249 169 155 150 177 124 107 112 122 118 102 105 84 59 43 32 32 29
319 320 322 319 325 322 326 333 325 328 335 60 31 139 165 190 257 204 178 196 192 233 178 183 172 163 109 129 131 177 236 184 252 153 213 222 357 121 152 136 120 113 111 126 111 99 103 80 61 53 41 26 37 33
322 321 323 324 325 312 287 330 344 348 343 296 65 108 143 186 209 223 198 202 199 181 160 148 89 99 116 105 96 200 232 234 169 196 186 110 191 189 129 123 114 113 117 109 102 95 96 74 57 44 42 25 38 25
317 318 319 302 300 294 282 288 236 173 357 308 211 206 222 187 245 207 252 136 112 144 134 121 98 103 111 101 161 234 231 273 231 178 113 175 177 123 128 122 121 115 121 118 109 103 107 80 63 49 47 32 34 27
315 325 318 315 276 191 70 138 154 116 350 282 254 248 225 246 275 271 231 157 149 162 140 114 108 147 153 215 198 240 230 249 85 122 160 152 128 122 120 121 121 122 118 112 109 101 91 77 62 51 55 38 35 33
319 348 50 7 142 157 187 161 187 252 285 264 246 282 284 341 50 328 240 159 156 158 146 142 138 202 213 212 217 212 233 76 168 157 128 126 119 119 121 121 121 121 122 119 100 99 85 68 60 59 82 37 35 35
265 300 328 356 190 185 169 154 185 235 269 256 257 264 267 269 288 264 175 140 159 158 197 198 225 221 176 213 234 174 203 161 123 129 136 137 130 130 130 129 123 123 125 106 110 91 91 70 63 56 85 39 36 36
222 211 351 89 167 174 168 136 185 276 266 259 265 323 337 257 217 245 163 170 161 207 210 225 284 251 271 255 127 76 106 126 131 131 130 126 129 132 137 142 150 116 121 107 91 96 81 73 58 51 64 45 39 40
171 173 158 171 187 148 175 216 204 264 260 265 260 250 275 286 234 192 156 172 236 214 249 242 245 189 153 251 124 122 127 131 131 133 130 132 132 132 127 119 117 128 117 118 83 82 73 85 58 44 53 48 43 43
157 153 160 181 185 198 204 228 223 267 274 309 326 257 197 149 141 144 129 43 56 197 266 288 23 115 179 122 146 145 144 140 134 125 129 135 140 139 137 138 153 121 116 107 84 74 69 76 53 39 47 53 45 44
140 159 154 178 208 274 253 234 234 246 296 289 341 359 50 132 129 166 73 335 347 295 39 355 230 273 238 162 157 153 150 155 151 144 143 146 149 144 134 123 118 116 124 106 85 69 58 60 58 36 36 53 49 46
160 161 165 189 222 262 267 233 259 300 282 291 333 352 74 71 88 18 270 334 309 358 102 177 4 93 146 154 158 151 144 140 130 133 137 144 149 155 132 128 126 111 102 96 90 84 75 66 40 34 34 45 38 38
169 171 190 201 232 247 259 214 238 235 250 356 354 331 92 87 40 306 292 273 270 108 144 174 75 125 123 142 161 160 154 150 145 147 154 133 123 126 131 124 123 120 110 98 97 87 78 67 49 43 38 45 35 33
170 190 219 223 214 263 240 231 223 240 193 156 191 208 129 164 184 265 297 293 137 137 157 123 132 133 131 133 132 135 141 144 139 139 143 141 129 123 128 122 118 109 108 117 100 78 59 62 53 54 44 41 27 26
203 220 217 251 222 235 247 189 208 182 241 197 184 181 205 173 189 222 234 201 150 154 173 149 147 140 138 138 140 143 148 150 144 143 147 154 151 148 144 143 135 113 73 55 86 73 70 63 53 41 32 22 14 16
216 216 188 215 218 202 263 191 214 205 205 145 195 171 169 186 239 161 298 141 147 156 141 132 162 156 149 149 144 141 140 148 151 145 158 168 175 174 155 143 123 82 50 44 45 56 60 58 43 22 17 11 9 10
240 255 221 231 262 308 325 308 328 359 164 197 194 168 160 184 161 203 63 151 148 152 19 156 166 163 155 149 150 148 150 157 152 128 131 172 168 149 132 110 101 81 50 37 44 58 65 64 46 29 14 3 7 10
247 274 207 249 219 240 204 111 6 26 21 358 358 91 167 149 157 186 133 167 156 137 94 150 157 158 154 154 155 155 148 143 127 120 119 117 106 97 87 81 77 71 48 33 44 54 48 41 32 20 13 2 357 4
249 245 212 274 106 75 53 0 28 16 1 1 27 117 152 176 128 127 142 149 138 89 165 152 156 157 146 143 145 151 154 157 160 140 130 126 126 124 128 122 114 115 78 63 48 23 18 12 9 5 5 3 360 3
241 223 173 131 89 119 151 189 210 260 351 145 156 137 149 153 139 134 143 164 204 165 165 161 148 144 142 144 146 154 163 164 177 173 152 152 150 152 163 166 154 154 358 351 347 341 344 345 356 14 22 26 23 22
206 163 96 84 94 126 168 209 194 194 150 63 177 159 163 166 174 147 154 156 137 149 151 153 154 159 161 164 166 158 142 151 174 178 176 167 168 187 217 219 197 200 260 310 346 349 355 7 21 29 32 32 31 28
107 87 126 114 131 170 165 196 187 128 123 71 84 131 135 151 183 167 163 170 172 167 168 175 179 171 176 178 179 184 189 174 170 172 180 190 195 216 230 180 138 93 46 35 42 41 41 39 43 43 41 38 35 32
109 98 104 114 137 185 195 184 174 149 143 153 186 174 161 158 181 177 166 184 190 188 192 194 186 181 178 185 189 179 166 167 170 175 188 203 182 160 199 218 238 282 323 2 28 42 44 42 44 46 43 38 33 31